Weather Roundup
Issued by NWS Springfield, MO

Home | Current Version | Previous Version | Text Only | Print | Product List | Glossary On
Versions: 1 2 3 4 5 6 7 8 9 10 11 12 13 14 15 16 17 18 19 20 21 22 23 24 25 26 27 28 29 30 31 32 33 34 35 36 37 38 39 40 41 42 43 44 45 46 47 48 49 50
000
NZUS99 KSGF 161107
HRRSGF

HOURLY WEATHER
NATIONAL WEATHER SERVICE SPRINGFIELD MO
500 AM CST MON JAN 16 2017

......SGF CWA......

CITY           SKY/WX    TMP DP  RH WIND       PRES   REMARKS
SPRINGFIELD    RAIN      47  45  93 SE21      29.99F
JOPLIN         MOCLDY    52  51  97 MISG      29.86F
WEST PLAINS    FOG       43  42  97 E6        30.09F VSB 1/2
ROLLA          FOG       37  37 100 SE9       30.06F VSB 1/2 WCI  30
OSAGE BEACH    LGT RAIN  43  42  97 E7        30.04F
BRANSON        LGT RAIN  41  41 100 E13       30.03F VSB<1/4

......SURROUNDING SGF CWA......

CITY           SKY/WX    TMP DP  RH WIND       PRES   REMARKS
CHANUTE        CLOUDY    47  46  97 E9        29.83F
PARSONS        CLOUDY    53  52  96 SE9       29.83F
EMPORIA        LGT RAIN  37  37 100 E12       29.83F FOG     WCI  29
GROVE OK       CLOUDY    59  54  82 SE17G28   29.87F
ROGERS AR      LGT RAIN  52  52 100 SE14      29.93F
SILOAM SPRINGS CLOUDY    55  52  88 S17       29.91R
HARRISON AR    RAIN      42  42 100 SE9       30.03F VSB 1/2
NEAR YELLVILLE CLOUDY    43  39  87 SE5       30.06S VSB 3/4

......KANSAS AND MISSOURI......

CITY           SKY/WX    TMP DP  RH WIND       PRES   REMARKS
KANSAS CTY INT HVY RAIN  33  31  92 E16       29.96F FOG     WCI  23
DOWNTOWN KC    RAIN      34  34 100 E12       29.97F FOG     WCI  25
COLUMBIA       CLOUDY    37  37 100 E10       30.06F FOG     WCI  30
SEDALIA        LGT RAIN  39  38  96 E9        30.03F FOG     WCI  33
ST JOSEPH      RAIN      33  33 100 E8        30.00F FOG     WCI  26
ST LOUIS       FOG       39  37  92 E8        30.14F VSB 1/4 WCI  33
SPIRIT OF STL  CLOUDY    39  39 100 E7        30.14F FOG     WCI  34
KIRKSVILLE     FRZ RAIN  32  32 100 E10       30.10F VSB 1/2 WCI  24
WICHITA        LGT RAIN  41  41 100 NE6       29.78F FOG
TOPEKA         LGT RAIN  35  32  88 NE8       29.93F WCI  29
OLATHE         LGT RAIN  35  35 100 E9        29.94F WCI  28

......TENNESSEE......

CITY           SKY/WX    TMP DP  RH WIND       PRES   REMARKS
MEMPHIS        CLOUDY    52  52 100 E5        30.11F
NASHVILLE      FOG       49  48  97 CALM      30.23R VSB 1/4

......ARKANSAS.......

CITY           SKY/WX    TMP DP  RH WIND       PRES   REMARKS
FAYETTEVILLE   LGT RAIN  56  54  93 SE10G21   29.92F
FT SMITH       CLOUDY    49  47  93 E10       29.94F
LITTLE ROCK    FOG       45  32  60 NE5       30.08S VSB 1/2

......OKLAHOMA.......

CITY           SKY/WX    TMP DP  RH WIND       PRES   REMARKS
TULSA          CLOUDY    56  54  93 S15G23    29.81F
PONCA CITY     CLOUDY    43  40  89 SW14G24   29.82R
MCALESTER      MOCLDY    60  55  83 S8G17     29.87R
OKLAHOMA CITY  CLOUDY    41  40  96 SW7       29.84F

......IOWA............

CITY           SKY/WX    TMP DP  RH WIND       PRES   REMARKS
DES MOINES     FRZ RAIN  32  29  88 E7        30.13F FOG     WCI  26
QUAD CITIES    MIX PCPN  32  29  88 E7        30.22S FOG     WCI  26

......ILLINOIS........

CITY           SKY/WX    TMP DP  RH WIND       PRES   REMARKS
QUINCY         FOG       33  33 100 E7        30.14F VSB 1/4 WCI  27
CHICAGO        FRZ RAIN  32  28  85 CALM      30.26F




USA.gov is the U.S. government's official web portal to all federal, state and local government web resources and services.